Вернуться в каталог

SL-3 DEB

АктивенPO
NORAD 15521·DEBRIS·🇷🇺 Russia

Запущен Oct 28, 1974 с Plesetsk Cosmodrome

Loading…

Ближайшие Пролёты (ближайшие 24 часа)

TLE

СвежийSource: Space-Track

Эпоха: Sep 13, 2026, 15:17 UTC

1 15521U 74083C   26256.63718422  .00000056  00000-0  24664-4 0  9997
2 15521  81.2118 100.9589 0055833 222.0403 201.9647 14.09700505670795

Отслеживайте SL-3 DEB в реальном времени с AllMySat

Download on the App Store